Weather History for Denison, IA

Change the Weather History Date:

Wednesday, November 21, 2012

  Actual Average Record
Temperature  
Mean Temperature 56 °F -  
Max Temperature 71 °F 44 °F 71 °F (2012)
Min Temperature 42 °F 27 °F 5 °F (2000)
Degree Days  
Heating Degree Days 8    
Growing Degree Days 6 (Base 50)    
Moisture  
Dew Point 40 °F    
Average Humidity 58    
Maximum Humidity 76    
Minimum Humidity 35    
Precipitation  
Precipitation 0.00 in - - ()
Sea Level Pressure  
Sea Level Pressure 29.97 in    
Wind  
Wind Speed 13 mph (SSW)    
Max Wind Speed 24 mph    
Max Gust Speed 36 mph    
Visibility 10 miles    
Events      
Averages and records for this station are not official NWS values.
T = Trace of Precipitation, MM = Missing Value Source: NWS Daily Summary

Daily Weather History Graph

Daily Weather History Graph

Search for Another Location

Airport:

Trip Planner

Search our weather history database for the weather conditions in past years. The results will help you decide how hot, cold, wet, or windy it might be!

Date:

Astronomy

Nov. 21, 2012 Rise Set
Actual Time 7:19 AM CST 4:55 PM CST
Civil Twilight 6:48 AM CST 5:25 PM CST
Nautical Twilight 6:14 AM CST 6:00 PM CST
Astronomical Twilight 5:41 AM CST 6:33 PM CST
Moon 1:17 PM CST (11/21) 12:33 AM CST (11/21)
Length of Visible Light 10h 37m
Length of Day
9h 36m
First Quarter, 62% of the Moon is Illuminated
Nov 21
First Quarter
Nov 28
Full
Dec 6
Last Quarter
Dec 13
New
Dec 19
First Quarter

Hourly Weather History & Observations

Time (CST) Temp. Windchill Dew Point Humidity Pressure Visibility Wind Dir Wind Speed Gust Speed Precip Events Conditions
12:15 AM 46.4 °F 41.1 °F 35.6 °F 66% 30.10 in 10.0 mi SSW 11.5 mph - N/A   Clear
12:35 AM 46.4 °F 40.7 °F 35.6 °F 66% 30.10 in 10.0 mi South 12.7 mph 18.4 mph N/A   Clear
12:55 AM 44.6 °F 39.7 °F 35.6 °F 71% 30.10 in 10.0 mi South 9.2 mph 16.1 mph N/A   Clear
1:15 AM 44.6 °F 42.2 °F 35.6 °F 71% 30.10 in - SW 4.6 mph 11.5 mph N/A   Clear
1:35 AM 44.6 °F 41.4 °F 35.6 °F 71% 30.09 in 10.0 mi SSW 5.8 mph 12.7 mph N/A   Clear
1:55 AM 42.8 °F 38.0 °F 35.6 °F 76% 30.10 in 10.0 mi SSW 8.1 mph - N/A   Clear
2:15 AM 42.8 °F 39.3 °F 35.6 °F 76% 30.10 in 10.0 mi SW 5.8 mph - N/A   Clear
2:35 AM 44.6 °F 40.2 °F 35.6 °F 71% 30.10 in 10.0 mi SSW 8.1 mph - N/A   Clear
2:55 AM 44.6 °F 40.7 °F 35.6 °F 71% 30.10 in 10.0 mi SSW 6.9 mph - N/A   Clear
3:15 AM 42.8 °F 38.0 °F 35.6 °F 76% 30.09 in 10.0 mi SSW 8.1 mph - N/A   Clear
3:35 AM 42.8 °F 39.3 °F 35.6 °F 76% 30.09 in 10.0 mi SSW 5.8 mph - N/A   Clear
3:55 AM 42.8 °F 37.5 °F 35.6 °F 76% 30.08 in 10.0 mi SSW 9.2 mph - N/A   Clear
4:15 AM 44.6 °F 38.8 °F 35.6 °F 71% 30.08 in 10.0 mi South 11.5 mph - N/A   Partly Cloudy
4:35 AM 44.6 °F 38.1 °F 35.6 °F 71% 30.08 in 10.0 mi SSW 13.8 mph - N/A   Clear
4:55 AM 44.6 °F 39.2 °F 35.6 °F 71% 30.08 in 10.0 mi SSW 10.4 mph 16.1 mph N/A   Clear
5:15 AM 44.6 °F 39.7 °F 35.6 °F 71% 30.07 in 10.0 mi SSW 9.2 mph - N/A   Clear
5:55 AM 44.6 °F 38.1 °F 35.6 °F 71% 30.07 in 10.0 mi SSW 13.8 mph - N/A   Clear
6:15 AM 44.6 °F 37.8 °F 35.6 °F 71% 30.07 in 10.0 mi South 15.0 mph 20.7 mph N/A   Clear
6:35 AM 44.6 °F 38.1 °F 35.6 °F 71% 30.06 in 10.0 mi South 13.8 mph 21.9 mph N/A   Clear
6:55 AM 44.6 °F 38.1 °F 35.6 °F 71% 30.06 in 10.0 mi SSW 13.8 mph - N/A   Clear
7:15 AM 44.6 °F 38.1 °F 35.6 °F 71% 30.06 in 10.0 mi SSW 13.8 mph - N/A   Clear
7:35 AM 44.6 °F 38.8 °F 35.6 °F 71% 30.06 in 10.0 mi SSW 11.5 mph 18.4 mph N/A   Clear
7:55 AM 44.6 °F 38.1 °F 35.6 °F 71% 30.06 in 10.0 mi SSW 13.8 mph - N/A   Clear
8:15 AM 46.4 °F 40.4 °F 35.6 °F 66% 30.06 in 10.0 mi SSW 13.8 mph - N/A   Clear
8:35 AM 46.4 °F 40.4 °F 37.4 °F 71% 30.05 in 10.0 mi SSW 13.8 mph 20.7 mph N/A   Clear
8:55 AM 48.2 °F - 37.4 °F 66% 30.05 in 10.0 mi South 16.1 mph - N/A   Clear
9:15 AM 50.0 °F - 39.2 °F 66% 30.05 in 10.0 mi SSW 11.5 mph 18.4 mph N/A   Clear
9:35 AM 53.6 °F - 39.2 °F 58% 30.05 in 10.0 mi SSW 19.6 mph - N/A   Clear
10:15 AM 57.2 °F - 39.2 °F 51% 30.05 in 10.0 mi SSW 17.3 mph 25.3 mph N/A   Clear
10:55 AM 60.8 °F - 41.0 °F 48% 30.03 in 10.0 mi SSW 19.6 mph 29.9 mph N/A   Clear
11:15 AM 62.6 °F - 41.0 °F 45% 30.02 in 10.0 mi SSW 17.3 mph 25.3 mph N/A   Clear
11:35 AM 64.4 °F - 42.8 °F 45% 30.01 in 10.0 mi SSW 17.3 mph 31.1 mph N/A   Clear
11:55 AM 66.2 °F - 42.8 °F 43% 30.00 in 10.0 mi SW 16.1 mph 25.3 mph N/A   Clear
12:15 PM 66.2 °F - 42.8 °F 43% 29.98 in 10.0 mi SSW 15.0 mph 23.0 mph N/A   Clear
12:35 PM 68.0 °F - 42.8 °F 40% 29.97 in 10.0 mi SSW 19.6 mph 28.8 mph N/A   Clear
12:55 PM 68.0 °F - 42.8 °F 40% 29.96 in 10.0 mi SSW 18.4 mph 29.9 mph N/A   Clear
1:15 PM 69.8 °F - 42.8 °F 38% 29.95 in 10.0 mi SSW 18.4 mph 35.7 mph N/A   Clear
1:35 PM 69.8 °F - 42.8 °F 38% 29.94 in 10.0 mi SSW 23.0 mph 31.1 mph N/A   Clear
1:55 PM 69.8 °F - 41.0 °F 35% 29.92 in 10.0 mi SSW 24.2 mph 32.2 mph N/A   Clear
2:15 PM 71.6 °F - 42.8 °F 35% 29.92 in 10.0 mi SSW 18.4 mph 35.7 mph N/A   Clear
2:35 PM 69.8 °F - 41.0 °F 35% 29.91 in 10.0 mi SSW 20.7 mph 34.5 mph N/A   Clear
2:55 PM 69.8 °F - 41.0 °F 35% 29.90 in 10.0 mi SSW 23.0 mph 33.4 mph N/A   Clear
3:15 PM 69.8 °F - 42.8 °F 38% 29.89 in 10.0 mi South 15.0 mph 28.8 mph N/A   Clear
3:55 PM 69.8 °F - 41.0 °F 35% 29.88 in 10.0 mi South 17.3 mph 27.6 mph N/A   Clear
4:15 PM 68.0 °F - 41.0 °F 37% 29.87 in 10.0 mi South 18.4 mph 27.6 mph N/A   Clear
4:35 PM 68.0 °F - 41.0 °F 37% 29.87 in 10.0 mi SSW 18.4 mph 26.5 mph N/A   Clear
4:55 PM 66.2 °F - 41.0 °F 40% 29.87 in 10.0 mi South 17.3 mph - N/A   Clear
5:15 PM 64.4 °F - 42.8 °F 45% 29.87 in 10.0 mi SSW 16.1 mph 24.2 mph N/A   Clear
5:35 PM 64.4 °F - 41.0 °F 42% 29.87 in 10.0 mi South 15.0 mph 20.7 mph N/A   Clear
5:55 PM 62.6 °F - 42.8 °F 48% 29.87 in 10.0 mi South 15.0 mph - N/A   Clear
6:15 PM 62.6 °F - 41.0 °F 45% 29.87 in 10.0 mi South 17.3 mph - N/A   Clear
6:35 PM 62.6 °F - 41.0 °F 45% 29.87 in 10.0 mi South 19.6 mph 26.5 mph N/A   Clear
6:55 PM 60.8 °F - 42.8 °F 52% 29.87 in 9.0 mi South 16.1 mph 26.5 mph N/A   Clear
7:15 PM 60.8 °F - 42.8 °F 52% 29.86 in 10.0 mi South 16.1 mph 23.0 mph N/A   Clear
7:35 PM 60.8 °F - 42.8 °F 52% 29.86 in 10.0 mi South 16.1 mph 21.9 mph N/A   Clear
7:55 PM 59.0 °F - 42.8 °F 55% 29.86 in 10.0 mi South 17.3 mph 25.3 mph N/A   Clear
8:15 PM 60.8 °F - 42.8 °F 52% 29.85 in 10.0 mi South 16.1 mph 23.0 mph N/A   Clear
8:35 PM 59.0 °F - 42.8 °F 55% 29.85 in 10.0 mi South 13.8 mph 26.5 mph N/A   Clear
8:55 PM 57.2 °F - 44.6 °F 63% 29.84 in 10.0 mi South 17.3 mph 24.2 mph N/A   Partly Cloudy
9:15 PM 57.2 °F - 44.6 °F 63% 29.84 in 10.0 mi South 13.8 mph 21.9 mph N/A   Partly Cloudy
9:35 PM 57.2 °F - 44.6 °F 63% 29.84 in 10.0 mi South 17.3 mph 25.3 mph N/A   Clear
9:55 PM 57.2 °F - 44.6 °F 63% 29.84 in 10.0 mi South 16.1 mph 24.2 mph N/A   Clear
10:15 PM 55.4 °F - 44.6 °F 67% 29.83 in 10.0 mi South 16.1 mph 26.5 mph N/A   Clear
10:35 PM 55.4 °F - 44.6 °F 67% 29.82 in 10.0 mi South 16.1 mph 23.0 mph N/A   Clear
10:55 PM 55.4 °F - 42.8 °F 63% 29.81 in 10.0 mi South 18.4 mph 25.3 mph N/A   Clear
11:15 PM 55.4 °F - 42.8 °F 63% 29.80 in 10.0 mi South 19.6 mph 27.6 mph N/A   Clear
11:35 PM 55.4 °F - 42.8 °F 63% 29.79 in 10.0 mi South 16.1 mph 23.0 mph N/A   Clear
11:55 PM 55.4 °F - 42.8 °F 63% 29.79 in 10.0 mi South 16.1 mph 23.0 mph N/A   Partly Cloudy